Location: Unspecified
(49.2170°N, 0.0000°E)
Time: 06:36:01
(UTC+00:00)

Transit 4A - Pass Details

Date: 20 June 2019
Orbit: 862 x 982 km, 66.8° (Epoch: 17 July)

Event Time Altitude Azimuth Distance (km) Brightness Sun altitude
Rises 10:28:24 0° 250° (WSW) 3,640 10.9 58.4°
Reaches altitude 10° 10:31:12 10° 260° (W) 2,710 10.3 58.7°
Maximum altitude 10:36:55 34° 323° (NW) 1,567 9.2 59.3°
Drops below altitude 10° 10:42:43 10° 27° (NNE) 2,747 10.4 59.9°
Sets 10:45:35 0° 37° (NE) 3,696 10.9 60.2°
